Location: Gradaro
(45.0833°N, 10.8833°E)
Time: 05:38:26
(UTC+00:00)

FENGYUN 1C DEB - Pass Details

Date: 28 June 2021
Orbit: 744 x 851 km, 99.4° (Epoch: 19 July)

Event Time Altitude Azimuth Distance (km) Brightness Sun altitude
Exits shadow 22:16:19 11° 100° (E) 2,370 ? -20.2°
Maximum altitude 22:19:47 19° 59° (ENE) 1,847 ? -20.3°
Drops below altitude 10° 22:23:21 10° 16° (NNE) 2,374 ? -20.5°
Sets 22:26:16 0° 359° (N) 3,288 ? -20.6°
